| time (UTC) | temp F | wind direction | speed MPH | gust MPH | rain 1hr in | rain 24hr in | rain mn in | humidity % | barometer mb |
| 20260901021003 | 74 | 6 | 2.0 | 5.0 | 0.00 | 0.00 | 0.00 | 91 | 1019.0 |
| 20260901020503 | 74 | 8 | 1.0 | 5.0 | 0.00 | 0.00 | 0.00 | 91 | 1018.9 |
| 20260901015002 | 74 | 2 | 3.0 | 6.0 | 0.00 | 0.00 | 0.00 | 92 | 1019.1 |
| 20260901014504 | 74 | 1 | 3.0 | 7.0 | 0.00 | 0.00 | 0.00 | 92 | 1019.1 |
| 20260901014003 | 74 | 1 | 3.0 | 7.0 | 0.00 | 0.00 | 0.00 | 92 | 1019.1 |
| 20260901013003 | 74 | 2 | 2.0 | 5.0 | 0.00 | 0.00 | 0.00 | 91 | 1019.0 |
| 20260901012503 | 74 | 1 | 2.0 | 5.0 | 0.00 | 0.00 | 0.00 | 91 | 1019.0 |
| 20260901012003 | 74 | 2 | 2.0 | 5.0 | 0.00 | 0.00 | 0.00 | 91 | 1019.0 |
| 20260901011503 | 74 | 2 | 2.0 | 5.0 | 0.00 | 0.00 | 0.00 | 91 | 1019.0 |
| 20260901011003 | 74 | 1 | 2.0 | 5.0 | 0.00 | 0.00 | 0.00 | 91 | 1019.0 |
| 20260901010504 | 74 | 1 | 2.0 | 5.0 | 0.00 | 0.00 | 0.00 | 91 | 1019.0 |
| 20260901010003 | 74 | 2 | 2.0 | 6.0 | 0.00 | 0.00 | 0.00 | 90 | 1019.0 |
| 20260901005503 | 74 | 4 | 2.0 | 6.0 | 0.00 | 0.00 | 0.00 | 90 | 1019.0 |
| 20260901005003 | 74 | 2 | 2.0 | 7.0 | 0.00 | 0.00 | 0.00 | 90 | 1018.9 |
| 20260901004504 | 74 | 1 | 3.0 | 7.0 | 0.00 | 0.00 | 0.00 | 90 | 1018.9 |
| 20260901003503 | 74 | 1 | 3.0 | 7.0 | 0.00 | 0.00 | 0.00 | 89 | 1018.9 |
| 20260901003003 | 74 | 1 | 3.0 | 6.0 | 0.00 | 0.00 | 0.00 | 89 | 1018.9 |
| 20260901002504 | 75 | 1 | 2.0 | 6.0 | 0.00 | 0.00 | 0.00 | 89 | 1018.9 |
| 20260901002003 | 75 | 1 | 2.0 | 5.0 | 0.00 | 0.00 | 0.00 | 88 | 1018.7 |
| 20260901001503 | 75 | 1 | 2.0 | 5.0 | 0.00 | 0.00 | 0.00 | 88 | 1018.8 |
| 20260901001003 | 75 | 3 | 1.0 | 4.0 | 0.00 | 0.00 | 0.00 | 88 | 1018.8 |
| 20260901000503 | 75 | 17 | 1.0 | 4.0 | 0.00 | 0.00 | 0.00 | 87 | 1018.7 |
| 20260901000003 | 75 | 61 | 1.0 | 3.0 | 0.00 | 0.00 | 0.00 | 87 | 1018.7 |
| 20260831235503 | 75 | 26 | 1.0 | 3.0 | 0.00 | 0.00 | 0.00 | 87 | 1018.7 |
| 20260831235003 | 75 | 20 | 1.0 | 3.0 | 0.00 | 0.00 | 0.00 | 87 | 1018.7 |
| 20260831234503 | 76 | 43 | 1.0 | 3.0 | 0.00 | 0.00 | 0.00 | 87 | 1018.8 |
| 20260831234003 | 76 | 35 | 1.0 | 4.0 | 0.00 | 0.00 | 0.00 | 86 | 1019.0 |
| 20260831233503 | 76 | 4 | 2.0 | 7.0 | 0.00 | 0.00 | 0.00 | 86 | 1019.0 |
| 20260831233003 | 76 | 3 | 2.0 | 7.0 | 0.00 | 0.00 | 0.00 | 86 | 1019.0 |
| 20260831232503 | 76 | 2 | 2.0 | 5.0 | 0.00 | 0.00 | 0.00 | 86 | 1018.9 |
| 20260831232003 | 76 | 5 | 2.0 | 5.0 | 0.00 | 0.00 | 0.00 | 85 | 1019.0 |
| 20260831231504 | 76 | 57 | 1.0 | 4.0 | 0.00 | 0.00 | 0.00 | 85 | 1019.0 |
| 20260831231003 | 76 | 100 | 1.0 | 3.0 | 0.00 | 0.00 | 0.00 | 85 | 1019.1 |
| 20260831230503 | 76 | 93 | 1.0 | 4.0 | 0.00 | 0.00 | 0.00 | 85 | 1019.1 |
| 20260831230003 | 76 | 79 | 1.0 | 4.0 | 0.00 | 0.00 | 0.00 | 85 | 1019.1 |
| 20260831225503 | 76 | 80 | 1.0 | 3.0 | 0.00 | 0.00 | 0.00 | 85 | 1019.1 |
| 20260831225004 | 77 | 93 | 1.0 | 3.0 | 0.00 | 0.00 | 0.00 | 85 | 1019.1 |
| 20260831224503 | 77 | 80 | 1.0 | 2.0 | 0.00 | 0.00 | 0.00 | 85 | 1019.1 |
| 20260831224003 | 77 | 26 | 1.0 | 5.0 | 0.00 | 0.00 | 0.00 | 85 | 1019.2 |
| 20260831223503 | 77 | 59 | 2.0 | 8.0 | 0.00 | 0.00 | 0.00 | 85 | 1019.1 |
| 20260831222003 | 77 | 15 | 2.0 | 5.0 | 0.00 | 0.00 | 0.00 | 84 | 1019.4 |
| 20260831221503 | 77 | 68 | 2.0 | 6.0 | 0.00 | 0.00 | 0.00 | 84 | 1019.4 |
| 20260831221003 | 77 | 32 | 3.0 | 11.0 | 0.00 | 0.00 | 0.00 | 84 | 1019.3 |
| 20260831220503 | 78 | 5 | 3.0 | 11.0 | 0.00 | 0.00 | 0.00 | 83 | 1019.6 |
| 20260831220004 | 78 | 1 | 2.0 | 6.0 | 0.00 | 0.00 | 0.00 | 83 | 1020.0 |
| 20260831215503 | 78 | 359 | 2.0 | 12.0 | 0.00 | 0.00 | 0.00 | 81 | 1020.2 |
| 20260831215004 | 79 | 2 | 4.0 | 12.0 | 0.00 | 0.00 | 0.00 | 80 | 1019.9 |
| 20260831214503 | 79 | 3 | 5.0 | 13.0 | 0.00 | 0.00 | 0.00 | 79 | 1019.4 |
| 20260831214003 | 80 | 3 | 5.0 | 14.0 | 0.00 | 0.00 | 0.00 | 78 | 1019.5 |
| 20260831213503 | 80 | 6 | 5.0 | 14.0 | 0.00 | 0.00 | 0.00 | 77 | 1019.6 |
| 20260831213003 | 81 | 7 | 5.0 | 15.0 | 0.00 | 0.00 | 0.00 | 76 | 1019.4 |
| 20260831212503 | 82 | 9 | 5.0 | 15.0 | 0.00 | 0.00 | 0.00 | 75 | 1019.5 |
| 20260831212003 | 83 | 42 | 3.0 | 12.0 | 0.00 | 0.00 | 0.00 | 77 | 1019.4 |
| 20260831211503 | 84 | 81 | 3.0 | 12.0 | 0.00 | 0.00 | 0.00 | 77 | 1019.2 |
| 20260831211004 | 84 | 86 | 3.0 | 11.0 | 0.00 | 0.00 | 0.00 | 77 | 1019.2 |
| 20260831210503 | 85 | 89 | 3.0 | 7.0 | 0.00 | 0.00 | 0.00 | 76 | 1019.0 |
| 20260831210003 | 85 | 87 | 3.0 | 8.0 | 0.00 | 0.00 | 0.00 | 76 | 1018.9 |
| 20260831205504 | 85 | 86 | 3.0 | 10.0 | 0.00 | 0.00 | 0.00 | 76 | 1019.0 |
| 20260831204503 | 85 | 85 | 3.0 | 9.0 | 0.00 | 0.00 | 0.00 | 76 | 1018.8 |
| 20260831204003 | 85 | 87 | 4.0 | 10.0 | 0.00 | 0.00 | 0.00 | 76 | 1018.8 |
| 20260831203504 | 85 | 83 | 4.0 | 10.0 | 0.00 | 0.00 | 0.00 | 75 | 1018.6 |
| 20260831202503 | 86 | 77 | 4.0 | 14.0 | 0.00 | 0.00 | 0.00 | 76 | 1018.4 |
| 20260831202003 | 86 | 72 | 4.0 | 8.0 | 0.00 | 0.00 | 0.00 | 76 | 1018.3 |
| 20260831201503 | 86 | 75 | 3.0 | 7.0 | 0.00 | 0.00 | 0.00 | 75 | 1018.2 |
| 20260831201003 | 86 | 77 | 4.0 | 10.0 | 0.00 | 0.00 | 0.00 | 74 | 1018.2 |
| 20260831200504 | 86 | 74 | 4.0 | 11.0 | 0.00 | 0.00 | 0.00 | 75 | 1018.3 |
| 20260831200003 | 86 | 70 | 4.0 | 11.0 | 0.00 | 0.00 | 0.00 | 75 | 1018.3 |
| 20260831195503 | 86 | 78 | 4.0 | 10.0 | 0.00 | 0.00 | 0.00 | 74 | 1018.2 |
| 20260831195003 | 86 | 80 | 4.0 | 10.0 | 0.00 | 0.00 | 0.00 | 74 | 1018.2 |
| 20260831194003 | 87 | 78 | 3.0 | 10.0 | 0.00 | 0.00 | 0.00 | 74 | 1018.4 |
| 20260831193003 | 86 | 57 | 4.0 | 10.0 | 0.00 | 0.00 | 0.00 | 73 | 1018.5 |
| 20260831192503 | 86 | 60 | 4.0 | 10.0 | 0.00 | 0.00 | 0.00 | 73 | 1018.5 |
| 20260831191503 | 87 | 59 | 4.0 | 11.0 | 0.00 | 0.00 | 0.00 | 72 | 1018.8 |
| 20260831191003 | 87 | 40 | 3.0 | 7.0 | 0.00 | 0.00 | 0.00 | 72 | 1018.9 |
| 20260831190003 | 87 | 342 | 2.0 | 8.0 | 0.00 | 0.00 | 0.00 | 71 | 1018.9 |
| 20260831185503 | 87 | 24 | 2.0 | 7.0 | 0.00 | 0.00 | 0.00 | 70 | 1018.8 |
| 20260831185004 | 87 | 61 | 3.0 | 6.0 | 0.00 | 0.00 | 0.00 | 70 | 1018.7 |
| 20260831184503 | 87 | 43 | 3.0 | 7.0 | 0.00 | 0.00 | 0.00 | 69 | 1018.8 |
| 20260831184003 | 87 | 23 | 3.0 | 7.0 | 0.00 | 0.00 | 0.00 | 68 | 1018.8 |
| 20260831183503 | 88 | 48 | 2.0 | 6.0 | 0.00 | 0.00 | 0.00 | 68 | 1018.7 |
| 20260831183003 | 88 | 94 | 1.0 | 3.0 | 0.00 | 0.00 | 0.00 | 68 | 1018.9 |
| 20260831182503 | 88 | 90 | 1.0 | 3.0 | 0.00 | 0.00 | 0.00 | 70 | 1018.9 |
| 20260831182003 | 88 | 75 | 2.0 | 6.0 | 0.00 | 0.00 | 0.00 | 69 | 1018.9 |
| 20260831181503 | 88 | 57 | 3.0 | 8.0 | 0.00 | 0.00 | 0.00 | 67 | 1019.0 |
| 20260831181004 | 88 | 64 | 2.0 | 8.0 | 0.00 | 0.00 | 0.00 | 68 | 1019.0 |
| 20260831175503 | 88 | 89 | 1.0 | 5.0 | 0.00 | 0.00 | 0.00 | 71 | 1019.1 |
| 20260831175004 | 88 | 62 | 1.0 | 4.0 | 0.00 | 0.00 | 0.00 | 66 | 1019.1 |
| 20260831174503 | 89 | 18 | 1.0 | 4.0 | 0.00 | 0.00 | 0.00 | 67 | 1019.1 |
| 20260831174004 | 89 | 62 | 1.0 | 5.0 | 0.00 | 0.00 | 0.00 | 67 | 1019.2 |
| 20260831173503 | 89 | 34 | 2.0 | 7.0 | 0.00 | 0.00 | 0.00 | 69 | 1019.1 |
| 20260831173003 | 89 | 353 | 2.0 | 7.0 | 0.00 | 0.00 | 0.00 | 66 | 1019.1 |
| 20260831172509 | 89 | 323 | 1.0 | 5.0 | 0.00 | 0.00 | 0.00 | 65 | 1019.1 |
| 20260831172004 | 89 | 316 | 3.0 | 8.0 | 0.00 | 0.00 | 0.00 | 64 | 1019.2 |
| 20260831171503 | 90 | 324 | 3.0 | 8.0 | 0.00 | 0.00 | 0.00 | 64 | 1019.3 |
| 20260831171003 | 89 | 356 | 2.0 | 6.0 | 0.00 | 0.00 | 0.00 | 66 | 1019.2 |
| 20260831170003 | 89 | 22 | 3.0 | 7.0 | 0.00 | 0.00 | 0.00 | 71 | 1019.4 |
| 20260831165503 | 89 | 358 | 2.0 | 7.0 | 0.00 | 0.00 | 0.00 | 66 | 1019.3 |
| 20260831165003 | 90 | 353 | 2.0 | 7.0 | 0.00 | 0.00 | 0.00 | 64 | 1019.4 |
| 20260831164504 | 91 | 1 | 4.0 | 7.0 | 0.00 | 0.00 | 0.00 | 65 | 1019.4 |
| 20260831163003 | 90 | 38 | 2.0 | 5.0 | 0.00 | 0.00 | 0.00 | 67 | 1019.6 |
| 20260831162503 | 90 | 31 | 2.0 | 7.0 | 0.00 | 0.00 | 0.00 | 69 | 1019.6 |
| 20260831162003 | 90 | 44 | 2.0 | 7.0 | 0.00 | 0.00 | 0.00 | 68 | 1019.8 |
| 20260831161503 | 89 | 57 | 3.0 | 7.0 | 0.00 | 0.00 | 0.00 | 70 | 1019.8 |
| 20260831161004 | 89 | 58 | 3.0 | 7.0 | 0.00 | 0.00 | 0.00 | 72 | 1019.9 |
| 20260831160504 | 89 | 52 | 2.0 | 6.0 | 0.00 | 0.00 | 0.00 | 67 | 1019.9 |
| 20260831160003 | 88 | 47 | 2.0 | 7.0 | 0.00 | 0.00 | 0.00 | 72 | 1019.8 |
| 20260831155503 | 88 | 20 | 3.0 | 10.0 | 0.00 | 0.00 | 0.00 | 70 | 1019.8 |
| 20260831155003 | 87 | 5 | 3.0 | 10.0 | 0.00 | 0.00 | 0.00 | 73 | 1019.8 |
| 20260831154003 | 86 | 64 | 3.0 | 9.0 | 0.00 | 0.00 | 0.00 | 75 | 1019.8 |
| 20260831153503 | 86 | 85 | 3.0 | 9.0 | 0.00 | 0.00 | 0.00 | 76 | 1019.8 |
| 20260831153003 | 85 | 69 | 2.0 | 7.0 | 0.00 | 0.00 | 0.00 | 74 | 1019.9 |
| 20260831152503 | 85 | 61 | 2.0 | 7.0 | 0.00 | 0.00 | 0.00 | 76 | 1020.0 |
| 20260831152003 | 85 | 83 | 2.0 | 5.0 | 0.00 | 0.00 | 0.00 | 77 | 1020.1 |
| 20260831151503 | 84 | 91 | 2.0 | 5.0 | 0.00 | 0.00 | 0.00 | 80 | 1020.1 |
| 20260831151003 | 84 | 90 | 2.0 | 5.0 | 0.00 | 0.00 | 0.00 | 78 | 1020.0 |
| 20260831150003 | 84 | 92 | 2.0 | 7.0 | 0.00 | 0.00 | 0.00 | 81 | 1020.1 |
| 20260831145502 | 83 | 77 | 2.0 | 7.0 | 0.00 | 0.00 | 0.00 | 80 | 1020.2 |
| 20260831145003 | 83 | 73 | 2.0 | 7.0 | 0.00 | 0.00 | 0.00 | 80 | 1020.1 |
| 20260831144503 | 83 | 54 | 2.0 | 7.0 | 0.00 | 0.00 | 0.00 | 82 | 1020.2 |
| 20260831143502 | 82 | 85 | 2.0 | 8.0 | 0.00 | 0.00 | 0.00 | 82 | 1020.2 |
| 20260831143003 | 82 | 85 | 2.0 | 8.0 | 0.00 | 0.00 | 0.00 | 82 | 1020.0 |
| 20260831142004 | 82 | 87 | 3.0 | 9.0 | 0.00 | 0.00 | 0.00 | 82 | 1020.0 |
| 20260831141503 | 82 | 83 | 3.0 | 9.0 | 0.00 | 0.00 | 0.00 | 82 | 1020.0 |
| 20260831140503 | 81 | 83 | 3.0 | 9.0 | 0.00 | 0.00 | 0.00 | 85 | 1020.1 |
| 20260831140003 | 81 | 77 | 2.0 | 7.0 | 0.00 | 0.00 | 0.00 | 85 | 1020.1 |
| 20260831135503 | 80 | 26 | 2.0 | 7.0 | 0.00 | 0.00 | 0.00 | 87 | 1020.2 |
| 20260831134503 | 80 | 75 | 2.0 | 7.0 | 0.00 | 0.00 | 0.00 | 89 | 1020.1 |
| 20260831134003 | 79 | 91 | 2.0 | 5.0 | 0.00 | 0.00 | 0.00 | 90 | 1020.2 |
| 20260831133502 | 78 | 90 | 2.0 | 5.0 | 0.00 | 0.00 | 0.00 | 90 | 1020.2 |
| 20260831132503 | 78 | 86 | 2.0 | 5.0 | 0.00 | 0.00 | 0.00 | 92 | 1020.2 |
| 20260831132004 | 78 | 42 | 2.0 | 5.0 | 0.00 | 0.00 | 0.00 | 94 | 1020.3 |
| 20260831131503 | 77 | 12 | 2.0 | 5.0 | 0.00 | 0.00 | 0.00 | 96 | 1020.3 |
| 20260831131004 | 76 | 6 | 2.0 | 5.0 | 0.00 | 0.00 | 0.00 | 96 | 1020.3 |
| 20260831130004 | 75 | 29 | 1.0 | 6.0 | 0.00 | 0.00 | 0.00 | 96 | 1020.2 |
| 20260831125503 | 75 | 89 | 1.0 | 3.0 | 0.00 | 0.00 | 0.00 | 96 | 1020.2 |
| 20260831125003 | 75 | 93 | 1.0 | 3.0 | 0.00 | 0.00 | 0.00 | 96 | 1020.1 |
| 20260831124503 | 74 | 85 | 2.0 | 7.0 | 0.00 | 0.00 | 0.00 | 96 | 1020.2 |
| 20260831124003 | 74 | 78 | 2.0 | 7.0 | 0.00 | 0.00 | 0.00 | 95 | 1020.1 |
| 20260831123503 | 74 | 71 | 2.0 | 5.0 | 0.00 | 0.00 | 0.00 | 95 | 1020.1 |
| 20260831123003 | 74 | 70 | 3.0 | 7.0 | 0.00 | 0.00 | 0.00 | 95 | 1020.1 |
| 20260831122503 | 74 | 65 | 3.0 | 7.0 | 0.00 | 0.00 | 0.00 | 96 | 1020.1 |
| 20260831122003 | 74 | 69 | 3.0 | 7.0 | 0.00 | 0.00 | 0.00 | 96 | 1020.0 |
| 20260831120503 | 74 | 103 | 1.0 | 2.0 | 0.00 | 0.00 | 0.00 | 96 | 1019.8 |
| 20260831120004 | 74 | 103 | 0.0 | 2.0 | 0.00 | 0.00 | 0.00 | 96 | 1019.7 |
| 20260831115503 | 74 | 64 | 0.0 | 2.0 | 0.00 | 0.00 | 0.00 | 96 | 1019.7 |
| 20260831113003 | 73 | 87 | 0.0 | 2.0 | 0.00 | 0.00 | 0.00 | 96 | 1019.8 |
| 20260831112503 | 73 | 23 | 0.0 | 2.0 | 0.00 | 0.00 | 0.00 | 96 | 1019.7 |
| 20260831112003 | 73 | 5 | 1.0 | 2.0 | 0.00 | 0.00 | 0.00 | 96 | 1019.6 |
| 20260831111503 | 73 | 5 | 1.0 | 2.0 | 0.00 | 0.00 | 0.00 | 96 | 1019.6 |
| 20260831111003 | 72 | 25 | 1.0 | 2.0 | 0.00 | 0.00 | 0.00 | 96 | 1019.6 |
| 20260831110503 | 72 | 90 | 1.0 | 2.0 | 0.00 | 0.00 | 0.00 | 96 | 1019.4 |
| 20260831110003 | 72 | 99 | 0.0 | 2.0 | 0.00 | 0.00 | 0.00 | 96 | 1019.5 |
| 20260831105503 | 72 | 95 | 0.0 | 2.0 | 0.00 | 0.00 | 0.00 | 95 | 1019.5 |
| 20260831105003 | 72 | 91 | 0.0 | 2.0 | 0.00 | 0.00 | 0.00 | 96 | 1019.3 |
| 20260831104504 | 72 | 94 | 0.0 | 2.0 | 0.00 | 0.00 | 0.00 | 95 | 1019.4 |
| 20260831104003 | 72 | 95 | 0.0 | 2.0 | 0.00 | 0.00 | 0.00 | 95 | 1019.3 |
| 20260831103503 | 72 | 69 | 1.0 | 2.0 | 0.00 | 0.00 | 0.00 | 96 | 1019.2 |
| 20260831103003 | 72 | 32 | 0.0 | 2.0 | 0.00 | 0.00 | 0.00 | 96 | 1019.1 |
| 20260831102503 | 72 | 106 | 0.0 | 2.0 | 0.00 | 0.00 | 0.00 | 95 | 1019.1 |
| 20260831102003 | 72 | 135 | 0.0 | 2.0 | 0.00 | 0.00 | 0.00 | 95 | 1019.1 |
| 20260831101503 | 72 | 91 | 0.0 | 2.0 | 0.00 | 0.00 | 0.00 | 95 | 1019.0 |
| 20260831101003 | 72 | 46 | 0.0 | 2.0 | 0.00 | 0.00 | 0.00 | 95 | 1019.0 |
| 20260831100503 | 72 | 9 | 0.0 | 2.0 | 0.00 | 0.00 | 0.00 | 95 | 1019.0 |
| 20260831100003 | 72 | 16 | 0.0 | 2.0 | 0.00 | 0.00 | 0.00 | 95 | 1019.0 |
| 20260831095503 | 72 | 43 | 0.0 | 2.0 | 0.00 | 0.00 | 0.00 | 95 | 1018.8 |
| 20260831095003 | 72 | 15 | 0.0 | 2.0 | 0.00 | 0.00 | 0.00 | 95 | 1018.9 |
| 20260831094503 | 72 | 43 | 0.0 | 2.0 | 0.00 | 0.00 | 0.00 | 95 | 1019.0 |
| 20260831093503 | 73 | 95 | 0.0 | 2.0 | 0.00 | 0.00 | 0.00 | 95 | 1019.0 |
| 20260831093004 | 73 | 48 | 0.0 | 2.0 | 0.00 | 0.00 | 0.00 | 95 | 1018.9 |
| 20260831092503 | 73 | 21 | 0.0 | 2.0 | 0.00 | 0.00 | 0.00 | 95 | 1018.9 |
| 20260831092003 | 73 | 97 | 0.0 | 2.0 | 0.00 | 0.00 | 0.00 | 95 | 1019.0 |
| 20260831091503 | 73 | 93 | 0.0 | 2.0 | 0.00 | 0.00 | 0.00 | 95 | 1019.0 |
| 20260831091003 | 73 | 96 | 0.0 | 2.0 | 0.00 | 0.00 | 0.00 | 95 | 1019.0 |
| 20260831090505 | 73 | 117 | 0.0 | 2.0 | 0.00 | 0.00 | 0.00 | 95 | 1018.9 |
| 20260831090003 | 73 | 116 | 0.0 | 2.0 | 0.00 | 0.00 | 0.00 | 95 | 1019.0 |
| 20260831085503 | 73 | 118 | 0.0 | 2.0 | 0.00 | 0.00 | 0.00 | 95 | 1018.8 |
| 20260831085003 | 73 | 129 | 0.0 | 2.0 | 0.00 | 0.00 | 0.00 | 94 | 1018.8 |
| 20260831083503 | 73 | 129 | 0.0 | 2.0 | 0.00 | 0.00 | 0.00 | 95 | 1018.8 |
| 20260831083003 | 73 | 11 | 0.0 | 2.0 | 0.00 | 0.00 | 0.00 | 95 | 1018.8 |
| 20260831082503 | 73 | 6 | 0.0 | 2.0 | 0.00 | 0.00 | 0.00 | 94 | 1018.9 |
| 20260831082004 | 73 | 122 | 0.0 | 2.0 | 0.00 | 0.00 | 0.00 | 95 | 1018.8 |
| 20260831081504 | 74 | 88 | 0.0 | 2.0 | 0.00 | 0.00 | 0.00 | 95 | 1018.9 |
| 20260831081003 | 74 | 7 | 1.0 | 2.0 | 0.00 | 0.00 | 0.00 | 95 | 1018.9 |
| 20260831080004 | 74 | 5 | 0.0 | 2.0 | 0.00 | 0.00 | 0.00 | 95 | 1018.9 |
| 20260831075503 | 74 | 5 | 0.0 | 2.0 | 0.00 | 0.00 | 0.00 | 95 | 1018.9 |
| 20260831075003 | 74 | 341 | 0.0 | 2.0 | 0.00 | 0.00 | 0.00 | 95 | 1019.0 |
| 20260831074503 | 74 | 338 | 0.0 | 2.0 | 0.00 | 0.00 | 0.00 | 95 | 1019.0 |
| 20260831074003 | 74 | 23 | 0.0 | 2.0 | 0.00 | 0.00 | 0.00 | 94 | 1019.0 |
| 20260831073503 | 74 | 6 | 1.0 | 4.0 | 0.00 | 0.00 | 0.00 | 95 | 1018.9 |
| 20260831072503 | 74 | 2 | 2.0 | 5.0 | 0.00 | 0.00 | 0.00 | 95 | 1018.9 |
| 20260831072004 | 74 | 1 | 2.0 | 5.0 | 0.00 | 0.00 | 0.00 | 95 | 1019.0 |
| 20260831071503 | 74 | 1 | 2.0 | 5.0 | 0.00 | 0.00 | 0.00 | 95 | 1019.0 |
| 20260831071003 | 74 | 4 | 1.0 | 5.0 | 0.00 | 0.00 | 0.00 | 95 | 1019.0 |
| 20260831070503 | 74 | 6 | 1.0 | 3.0 | 0.00 | 0.00 | 0.00 | 94 | 1019.0 |
| 20260831070003 | 74 | 4 | 1.0 | 3.0 | 0.00 | 0.00 | 0.00 | 94 | 1019.1 |
| 20260831065003 | 74 | 6 | 1.0 | 3.0 | 0.00 | 0.00 | 0.00 | 94 | 1019.1 |
| 20260831064503 | 74 | 12 | 1.0 | 2.0 | 0.00 | 0.00 | 0.00 | 94 | 1019.1 |
| 20260831064003 | 74 | 13 | 1.0 | 2.0 | 0.00 | 0.00 | 0.00 | 94 | 1019.1 |
| 20260831063504 | 74 | 4 | 1.0 | 3.0 | 0.00 | 0.00 | 0.00 | 94 | 1019.1 |
| 20260831063003 | 74 | 6 | 1.0 | 3.0 | 0.00 | 0.00 | 0.00 | 94 | 1019.1 |
| 20260831062503 | 74 | 40 | 0.0 | 2.0 | 0.00 | 0.00 | 0.00 | 93 | 1019.1 |
| 20260831062003 | 74 | 104 | 0.0 | 2.0 | 0.00 | 0.00 | 0.00 | 93 | 1019.1 |
| 20260831061503 | 74 | 38 | 0.0 | 2.0 | 0.00 | 0.00 | 0.00 | 93 | 1019.1 |
| 20260831061003 | 74 | 37 | 0.0 | 2.0 | 0.00 | 0.00 | 0.00 | 93 | 1019.2 |
| 20260831060003 | 74 | 61 | 0.0 | 2.0 | 0.00 | 0.00 | 0.00 | 93 | 1019.3 |
| 20260831055003 | 74 | 359 | 0.0 | 3.0 | 0.00 | 0.00 | 0.00 | 93 | 1019.3 |
| 20260831054503 | 75 | 4 | 1.0 | 3.0 | 0.00 | 0.00 | 0.00 | 93 | 1019.2 |
| 20260831054003 | 75 | 3 | 1.0 | 3.0 | 0.00 | 0.00 | 0.00 | 93 | 1019.3 |
| 20260831053503 | 75 | 2 | 1.0 | 3.0 | 0.00 | 0.00 | 0.00 | 93 | 1019.4 |
| 20260831053003 | 75 | 2 | 1.0 | 3.0 | 0.00 | 0.00 | 0.00 | 93 | 1019.3 |
| 20260831052004 | 75 | 359 | 2.0 | 5.0 | 0.00 | 0.00 | 0.00 | 93 | 1019.4 |
| 20260831051503 | 75 | 1 | 1.0 | 3.0 | 0.00 | 0.00 | 0.00 | 92 | 1019.3 |
| 20260831051003 | 75 | 6 | 1.0 | 3.0 | 0.00 | 0.00 | 0.00 | 92 | 1019.2 |
| 20260831050005 | 75 | 4 | 1.0 | 5.0 | 0.00 | 0.00 | 0.00 | 91 | 1019.3 |
| 20260831045503 | 75 | 4 | 1.0 | 5.0 | 0.00 | 0.00 | 0.00 | 92 | 1019.4 |
| 20260831045003 | 75 | 6 | 1.0 | 3.0 | 0.00 | 0.00 | 0.00 | 91 | 1019.5 |
| 20260831044504 | 75 | 6 | 1.0 | 4.0 | 0.00 | 0.00 | 0.00 | 91 | 1019.5 |
| 20260831044003 | 76 | 3 | 1.0 | 4.0 | 0.00 | 0.00 | 0.00 | 91 | 1019.4 |
| 20260831043503 | 76 | 3 | 1.0 | 5.0 | 0.00 | 0.00 | 0.00 | 91 | 1019.5 |
| 20260831043003 | 76 | 2 | 1.0 | 5.0 | 0.00 | 0.00 | 0.00 | 91 | 1019.5 |
| 20260831042503 | 76 | 359 | 2.0 | 5.0 | 0.00 | 0.00 | 0.00 | 91 | 1019.5 |
| 20260831041503 | 76 | 1 | 1.0 | 6.0 | 0.00 | 0.00 | 0.00 | 90 | 1019.4 |
| 20260831040503 | 76 | 2 | 1.0 | 6.0 | 0.00 | 0.00 | 0.00 | 90 | 1019.6 |
| 20260831035503 | 76 | 1 | 3.0 | 8.0 | 0.00 | 0.00 | 0.00 | 90 | 1019.5 |
| 20260831035004 | 76 | 1 | 3.0 | 8.0 | 0.00 | 0.00 | 0.00 | 90 | 1019.6 |
| 20260831034503 | 76 | 1 | 2.0 | 8.0 | 0.00 | 0.00 | 0.00 | 89 | 1019.6 |
| 20260831034004 | 76 | 1 | 3.0 | 9.0 | 0.00 | 0.00 | 0.00 | 89 | 1019.6 |
| 20260831033503 | 76 | 1 | 2.0 | 9.0 | 0.00 | 0.00 | 0.00 | 89 | 1019.7 |
| 20260831033003 | 76 | 1 | 3.0 | 8.0 | 0.00 | 0.00 | 0.00 | 89 | 1019.7 |
| 20260831032003 | 76 | 1 | 4.0 | 12.0 | 0.00 | 0.00 | 0.00 | 89 | 1019.8 |
| 20260831031503 | 76 | 1 | 3.0 | 12.0 | 0.00 | 0.00 | 0.00 | 89 | 1019.8 |
| 20260831031003 | 76 | 1 | 3.0 | 11.0 | 0.00 | 0.00 | 0.00 | 88 | 1019.9 |
| 20260831030503 | 76 | 1 | 4.0 | 10.0 | 0.00 | 0.00 | 0.00 | 88 | 1019.9 |
| 20260831025503 | 76 | 1 | 3.0 | 7.0 | 0.00 | 0.00 | 0.00 | 88 | 1020.0 |
| 20260831025003 | 76 | 1 | 3.0 | 8.0 | 0.00 | 0.00 | 0.00 | 88 | 1020.1 |
| 20260831024503 | 76 | 1 | 3.0 | 8.0 | 0.00 | 0.00 | 0.00 | 88 | 1020.2 |
| 20260831024003 | 76 | 1 | 2.0 | 5.0 | 0.00 | 0.00 | 0.00 | 87 | 1020.2 |
| 20260831023503 | 76 | 1 | 2.0 | 5.0 | 0.00 | 0.00 | 0.00 | 87 | 1020.2 |
| 20260831023003 | 76 | 1 | 2.0 | 5.0 | 0.00 | 0.00 | 0.00 | 87 | 1020.2 |
| 20260831022503 | 76 | 1 | 2.0 | 5.0 | 0.00 | 0.00 | 0.00 | 87 | 1020.3 |
| 20260831022003 | 76 | 1 | 2.0 | 5.0 | 0.00 | 0.00 | 0.00 | 87 | 1020.2 |
| 20260831021503 | 77 | 2 | 2.0 | 7.0 | 0.00 | 0.00 | 0.00 | 87 | 1020.2 |